contact:dominique.lefevre@mio.osupytheas.fr, maurice.libes@osupytheas.fr, didier.mallarino@osupytheas.fr
Project:EMSO http://www.emso-fr.org/EMSO-France
Depth: 2436.0 m
Title:EMSO Ligure Ouest : Data MII capteur AQUADOPP
Date,Latitude,Longitude,X_East,Y_North,Z_Up,Amplitude_X,Amplitude_Y,Amplitude_Z,Batterie,SoundSpeed,Heading,Pitch,Roll,Pressure,TIS,Speed,Direction
, degrees North, degrees East, m.s-1, m.s-1,m.s-1, 1, 1, 1, Volt, m.s-1, degree, degree, degree, dbar, degree_C, m.s-1, degree
2022-04-12T00:04:03,42.805,6.029,0.05,-0.016,0.022,101.0,102.0,101.0,13.3,1505.2,324.2,-0.8,1.8,2470.8,13.28,0.052,107.7
2022-04-12T00:07:03,42.805,6.029,0.047,-0.051,-0.029,100.0,103.0,100.0,13.4,1505.2,322.1,-0.8,1.8,2470.796,13.28,0.069,137.3
2022-04-12T00:10:03,42.805,6.029,0.042,-0.017,0.003,101.0,102.0,99.0,13.4,1505.2,328.2,-0.8,1.9,2470.753,13.28,0.045,112.0
2022-04-12T00:13:03,42.805,6.029,0.029,-0.034,0.0,101.0,101.0,100.0,13.4,1505.2,328.7,-0.8,1.8,2470.758,13.28,0.044,139.5
2022-04-12T00:16:03,42.805,6.029,0.047,-0.014,0.017,100.0,103.0,100.0,13.4,1505.2,327.6,-0.7,1.9,2470.787,13.28,0.049,106.6
2022-04-12T00:19:03,42.805,6.029,0.025,-0.019,-0.024,102.0,101.0,100.0,13.4,1505.2,326.0,-0.8,1.8,2470.784,13.28,0.031,127.2
2022-04-12T00:22:03,42.805,6.029,0.031,-0.023,-0.002,101.0,102.0,100.0,13.3,1505.2,325.0,-0.8,1.8,2470.771,13.28,0.038,126.6
2022-04-12T00:25:03,42.805,6.029,0.053,-0.025,-0.008,103.0,101.0,100.0,13.4,1505.2,332.3,-0.8,1.8,2470.744,13.28,0.058,115.3
2022-04-12T00:28:03,42.805,6.029,0.033,-0.033,-0.021,99.0,102.0,101.0,13.4,1505.2,331.1,-0.7,1.8,2470.783,13.28,0.046,135.0
2022-04-12T00:31:03,42.805,6.029,0.032,-0.028,0.01,103.0,100.0,100.0,13.4,1505.2,333.0,-0.8,1.8,2470.774,13.28,0.042,131.2
2022-04-12T00:34:03,42.805,6.029,0.041,-0.034,-0.007,100.0,105.0,99.0,13.4,1505.2,324.8,-0.8,1.8,2470.797,13.28,0.053,129.7
2022-04-12T00:37:03,42.805,6.029,0.022,-0.004,-0.001,100.0,102.0,100.0,13.3,1505.2,323.3,-0.7,1.8,2470.811,13.28,0.022,100.3
2022-04-12T00:40:03,42.805,6.029,0.015,-0.03,-0.069,102.0,102.0,100.0,13.4,1505.2,325.6,-0.8,1.8,2470.765,13.28,0.033,153.4
2022-04-12T00:43:03,42.805,6.029,0.019,-0.029,-0.009,101.0,102.0,101.0,13.4,1505.2,326.4,-0.8,1.8,2470.728,13.28,0.034,146.8
2022-04-12T00:46:03,42.805,6.029,0.043,-0.022,0.034,102.0,101.0,100.0,13.4,1505.2,330.2,-0.8,1.8,2470.768,13.28,0.048,117.1
2022-04-12T00:49:03,42.805,6.029,0.037,-0.017,0.014,101.0,99.0,100.0,13.4,1505.2,322.7,-0.8,1.9,2470.747,13.28,0.04,114.7
2022-04-12T00:52:03,42.805,6.029,0.046,-0.013,-0.009,100.0,102.0,101.0,13.4,1505.2,322.9,-0.8,1.8,2470.798,13.28,0.047,105.8
2022-04-12T00:55:03,42.805,6.029,0.003,-0.025,-0.005,100.0,101.0,101.0,13.4,1505.2,332.7,-0.8,1.8,2470.796,13.28,0.025,173.2
2022-04-12T00:58:03,42.805,6.029,0.023,-0.029,0.012,102.0,104.0,99.0,13.4,1505.2,329.0,-0.8,1.8,2470.779,13.28,0.037,141.6
2022-04-12T01:04:03,42.805,6.029,0.034,-0.024,0.032,103.0,104.0,103.0,13.4,1505.2,322.0,-0.8,1.8,2470.804,13.28,0.041,125.2
2022-04-12T01:07:04,42.805,6.029,0.001,-0.019,-0.008,100.0,102.0,101.0,13.4,1505.2,323.5,-0.8,1.8,2470.831,13.28,0.019,177.0
2022-04-12T01:10:03,42.805,6.029,0.014,-0.019,0.015,101.0,102.0,101.0,13.4,1505.2,322.5,-0.8,1.8,2470.821,13.28,0.023,143.6
2022-04-12T01:13:03,42.805,6.029,0.052,-0.016,0.02,102.0,102.0,101.0,13.4,1505.2,325.0,-0.8,1.8,2470.817,13.28,0.054,107.1
2022-04-12T01:16:03,42.805,6.029,0.068,-0.05,-0.011,101.0,102.0,101.0,13.3,1505.2,332.3,-0.7,1.8,2470.822,13.28,0.084,126.3
2022-04-12T01:19:03,42.805,6.029,0.045,-0.04,0.008,101.0,103.0,99.0,13.4,1505.2,329.6,-0.8,1.8,2470.819,13.28,0.06,131.6
2022-04-12T01:22:03,42.805,6.029,0.052,-0.037,-0.008,101.0,101.0,101.0,13.4,1505.2,333.0,-0.8,1.8,2470.856,13.28,0.063,125.4
2022-04-12T01:25:03,42.805,6.029,0.025,-0.011,0.024,101.0,102.0,100.0,13.3,1505.2,327.7,-0.7,1.8,2470.786,13.28,0.027,113.7
2022-04-12T01:28:03,42.805,6.029,0.018,-0.005,-0.004,101.0,102.0,100.0,13.4,1505.2,326.4,-0.7,1.8,2470.82,13.28,0.018,105.5
2022-04-12T01:31:03,42.805,6.029,0.03,-0.042,0.007,102.0,102.0,100.0,13.4,1505.2,328.2,-0.7,1.8,2470.818,13.28,0.051,144.5
2022-04-12T01:34:03,42.805,6.029,0.009,-0.029,-0.008,101.0,104.0,100.0,13.4,1505.2,331.6,-0.8,1.8,2470.808,13.28,0.03,162.8
2022-04-12T01:37:03,42.805,6.029,0.03,-0.007,0.006,102.0,102.0,100.0,13.4,1505.2,330.7,-0.7,1.8,2470.816,13.28,0.03,103.1
2022-04-12T01:40:03,42.805,6.029,0.067,-0.022,-0.002,101.0,103.0,100.0,13.4,1505.2,326.7,-0.8,1.8,2470.859,13.28,0.07,108.2
2022-04-12T01:43:03,42.805,6.029,0.006,-0.012,0.002,103.0,101.0,100.0,13.4,1505.2,331.4,-0.8,1.8,2470.809,13.28,0.013,153.4
2022-04-12T01:46:03,42.805,6.029,0.044,-0.035,-0.025,100.0,102.0,100.0,13.4,1505.2,327.1,-0.7,1.8,2470.838,13.28,0.056,128.5
2022-04-12T01:49:03,42.805,6.029,0.036,-0.026,-0.004,103.0,103.0,98.0,13.4,1505.2,330.5,-0.7,1.8,2470.821,13.28,0.044,125.8
2022-04-12T01:52:03,42.805,6.029,0.049,-0.029,0.002,101.0,102.0,100.0,13.4,1505.2,331.2,-0.7,1.8,2470.819,13.28,0.056,120.6
2022-04-12T01:55:03,42.805,6.029,0.042,-0.032,0.021,102.0,102.0,99.0,13.4,1505.2,330.2,-0.8,1.8,2470.86,13.28,0.052,127.3
2022-04-12T01:58:03,42.805,6.029,0.056,0.002,0.014,101.0,101.0,99.0,13.4,1505.2,322.2,-0.7,1.8,2470.828,13.28,0.056,88.0
2022-04-12T02:04:03,42.805,6.029,0.012,0.0,-0.001,103.0,101.0,100.0,13.4,1505.2,322.8,-0.8,1.8,2470.874,13.28,0.012,90.0
2022-04-12T02:07:03,42.805,6.029,0.025,-0.023,-0.002,100.0,101.0,102.0,13.4,1505.2,325.8,-0.7,1.8,2470.884,13.28,0.033,132.6
2022-04-12T02:10:03,42.805,6.029,0.043,-0.024,0.004,100.0,101.0,100.0,13.4,1505.2,330.0,-0.7,1.9,2470.824,13.28,0.049,119.2
2022-04-12T02:13:03,42.805,6.029,0.029,-0.027,-0.016,102.0,100.0,101.0,13.4,1505.2,322.2,-0.8,1.8,2470.872,13.28,0.039,133.0
2022-04-12T02:16:03,42.805,6.029,0.046,-0.013,0.001,101.0,103.0,100.0,13.3,1505.2,322.4,-0.7,1.8,2470.887,13.28,0.047,105.8
2022-04-12T02:19:03,42.805,6.029,0.035,-0.038,-0.002,98.0,104.0,101.0,13.3,1505.2,332.0,-0.8,1.8,2470.868,13.28,0.051,137.4
2022-04-12T02:22:03,42.805,6.029,0.042,-0.019,0.022,101.0,103.0,101.0,13.4,1505.2,330.5,-0.8,1.8,2470.881,13.28,0.046,114.3
2022-04-12T02:25:03,42.805,6.029,0.048,-0.031,0.006,100.0,101.0,101.0,13.4,1505.2,328.8,-0.7,1.8,2470.875,13.28,0.057,122.9
2022-04-12T02:28:03,42.805,6.029,0.021,-0.035,-0.021,100.0,102.0,100.0,13.4,1505.2,332.7,-0.7,1.9,2470.843,13.28,0.04,149.0
2022-04-12T02:31:03,42.805,6.029,0.025,-0.02,0.013,99.0,103.0,101.0,13.4,1505.2,331.1,-0.8,1.8,2470.87,13.28,0.032,128.7
2022-04-12T02:34:03,42.805,6.029,0.056,-0.023,0.01,101.0,102.0,101.0,13.4,1505.2,326.2,-0.7,1.8,2470.826,13.28,0.06,112.3
2022-04-12T02:37:03,42.805,6.029,0.023,-0.015,0.033,101.0,103.0,99.0,13.4,1505.2,327.5,-0.7,1.8,2470.871,13.28,0.027,123.1
2022-04-12T02:40:03,42.805,6.029,0.005,-0.016,0.004,102.0,100.0,101.0,13.4,1505.2,323.3,-0.7,1.8,2470.88,13.28,0.016,162.6
2022-04-12T02:43:03,42.805,6.029,0.053,-0.023,0.014,101.0,102.0,100.0,13.3,1505.2,332.8,-0.7,1.8,2470.828,13.28,0.057,113.5
2022-04-12T02:46:03,42.805,6.029,0.025,-0.017,0.02,100.0,104.0,99.0,13.3,1505.2,333.0,-0.8,1.8,2470.877,13.28,0.03,124.2
2022-04-12T02:49:03,42.805,6.029,0.028,-0.023,0.011,100.0,103.0,100.0,13.4,1505.2,329.5,-0.7,1.8,2470.885,13.28,0.036,129.4
2022-04-12T02:52:03,42.805,6.029,0.053,-0.009,0.011,100.0,101.0,100.0,13.4,1505.2,323.6,-0.8,1.8,2470.851,13.28,0.053,99.6
2022-04-12T02:55:03,42.805,6.029,0.045,0.006,0.024,101.0,103.0,100.0,13.4,1505.2,322.9,-0.8,1.8,2470.877,13.28,0.045,82.4
2022-04-12T02:58:03,42.805,6.029,0.036,-0.022,0.01,101.0,103.0,100.0,13.4,1505.2,330.4,-0.7,1.8,2470.867,13.28,0.042,121.4
2022-04-12T03:04:03,42.805,6.029,0.043,-0.017,0.025,101.0,104.0,100.0,13.4,1505.2,326.7,-0.8,1.8,2470.936,13.28,0.046,111.6
2022-04-12T03:07:03,42.805,6.029,0.029,0.011,0.009,101.0,103.0,100.0,13.4,1505.2,325.9,-0.8,1.8,2470.853,13.28,0.031,69.2
2022-04-12T03:10:03,42.805,6.029,0.033,-0.015,0.003,101.0,102.0,100.0,13.4,1505.2,330.5,-0.7,1.8,2470.853,13.28,0.036,114.4
2022-04-12T03:13:03,42.805,6.029,0.017,-0.046,-0.005,101.0,103.0,101.0,13.4,1505.2,331.6,-0.8,1.8,2470.861,13.28,0.049,159.7
2022-04-12T03:16:03,42.805,6.029,0.038,0.001,0.021,101.0,103.0,100.0,13.4,1505.2,326.8,-0.8,1.8,2470.897,13.28,0.038,88.5
2022-04-12T03:19:03,42.805,6.029,0.036,-0.033,-0.016,102.0,101.0,101.0,13.4,1505.2,324.5,-0.7,1.9,2470.822,13.28,0.048,132.5
2022-04-12T03:22:03,42.805,6.029,0.043,-0.035,0.002,99.0,103.0,100.0,13.4,1505.2,333.0,-0.7,1.8,2470.858,13.28,0.055,129.1
2022-04-12T03:25:03,42.805,6.029,0.025,-0.011,-0.019,101.0,103.0,100.0,13.4,1505.2,329.7,-0.8,1.8,2470.869,13.28,0.027,113.7
2022-04-12T03:28:03,42.805,6.029,0.071,-0.003,0.05,100.0,102.0,101.0,13.4,1505.2,323.6,-0.8,1.8,2470.853,13.28,0.071,92.4
2022-04-12T03:31:03,42.805,6.029,0.066,-0.015,0.034,101.0,103.0,100.0,13.4,1505.2,325.5,-0.7,1.8,2470.841,13.28,0.067,102.8
2022-04-12T03:34:03,42.805,6.029,0.023,-0.004,0.012,101.0,105.0,101.0,13.4,1505.2,325.5,-0.8,1.8,2470.856,13.28,0.023,99.9
2022-04-12T03:37:03,42.805,6.029,0.023,-0.023,-0.014,99.0,103.0,101.0,13.4,1505.2,325.6,-0.8,1.8,2470.906,13.28,0.032,135.0
2022-04-12T03:40:03,42.805,6.029,0.073,-0.018,0.037,101.0,102.0,100.0,13.4,1505.2,325.0,-0.8,1.8,2470.884,13.28,0.075,103.8
2022-04-12T03:43:03,42.805,6.029,0.061,-0.034,-0.002,102.0,102.0,100.0,13.3,1505.2,322.4,-0.8,1.8,2470.916,13.28,0.069,119.1
2022-04-12T03:46:03,42.805,6.029,0.035,-0.026,0.002,100.0,103.0,101.0,13.4,1505.2,331.2,-0.7,1.9,2470.893,13.28,0.043,126.6
2022-04-12T03:49:03,42.805,6.029,0.068,-0.03,0.027,101.0,103.0,100.0,13.3,1505.2,327.8,-0.7,1.8,2470.894,13.28,0.074,113.8
2022-04-12T03:52:03,42.805,6.029,0.044,-0.022,0.002,102.0,104.0,101.0,13.4,1505.2,326.8,-0.8,1.8,2470.897,13.28,0.049,116.6
2022-04-12T03:55:03,42.805,6.029,0.044,-0.014,0.016,101.0,104.0,100.0,13.4,1505.2,327.1,-0.7,1.8,2470.868,13.28,0.046,107.6
2022-04-12T03:58:03,42.805,6.029,0.047,-0.02,0.021,101.0,103.0,100.0,13.4,1505.2,328.7,-0.7,1.8,2470.845,13.28,0.051,113.0
2022-04-12T04:04:03,42.805,6.029,0.053,-0.02,0.013,102.0,102.0,100.0,13.4,1505.2,323.4,-0.8,1.8,2470.906,13.28,0.056,110.7
2022-04-12T04:07:03,42.805,6.029,0.073,-0.014,-0.01,101.0,102.0,101.0,13.4,1505.2,322.9,-0.8,1.8,2470.885,13.28,0.074,100.9
2022-04-12T04:10:03,42.805,6.029,0.025,-0.022,-0.009,101.0,101.0,100.0,13.3,1505.2,326.8,-0.8,1.8,2470.908,13.28,0.033,131.3
2022-04-12T04:13:03,42.805,6.029,0.037,-0.013,0.022,102.0,103.0,101.0,13.3,1505.2,327.7,-0.8,1.8,2470.897,13.28,0.039,109.4
2022-04-12T04:16:03,42.805,6.029,0.052,-0.014,0.02,101.0,101.0,101.0,13.4,1505.2,328.5,-0.8,1.8,2470.862,13.28,0.053,105.1
2022-04-12T04:19:03,42.805,6.029,0.023,-0.026,-0.017,100.0,102.0,101.0,13.4,1505.2,323.3,-0.7,1.8,2470.897,13.28,0.034,138.5
2022-04-12T04:22:03,42.805,6.029,0.035,-0.019,-0.015,101.0,102.0,101.0,13.4,1505.2,326.3,-0.8,1.8,2470.895,13.28,0.039,118.5
2022-04-12T04:25:03,42.805,6.029,0.062,-0.023,0.008,100.0,104.0,99.0,13.4,1505.2,329.2,-0.7,1.8,2470.873,13.28,0.066,110.3
2022-04-12T04:28:03,42.805,6.029,0.024,-0.029,-0.029,102.0,103.0,100.0,13.3,1505.2,325.6,-0.7,1.8,2470.935,13.28,0.037,140.4
2022-04-12T04:31:03,42.805,6.029,0.048,-0.028,0.014,101.0,102.0,101.0,13.4,1505.2,325.8,-0.8,1.8,2470.9,13.28,0.055,120.3
2022-04-12T04:34:03,42.805,6.029,0.052,-0.025,0.018,103.0,102.0,100.0,13.4,1505.2,328.9,-0.8,1.9,2470.902,13.28,0.057,115.7
2022-04-12T04:37:03,42.805,6.029,0.028,-0.029,-0.029,100.0,102.0,101.0,13.3,1505.2,329.9,-0.8,1.8,2470.898,13.28,0.04,136.0
2022-04-12T04:40:03,42.805,6.029,0.013,-0.036,-0.04,101.0,104.0,100.0,13.4,1505.2,325.8,-0.8,1.9,2470.878,13.28,0.038,160.1
2022-04-12T04:43:03,42.805,6.029,0.045,-0.013,0.02,101.0,102.0,101.0,13.4,1505.2,332.1,-0.7,1.8,2470.872,13.28,0.046,106.1
2022-04-12T04:46:03,42.805,6.029,0.044,0.032,0.073,102.0,103.0,99.0,13.4,1505.2,322.8,-0.7,1.8,2470.914,13.28,0.054,54.0
2022-04-12T04:49:03,42.805,6.029,0.038,-0.023,-0.008,102.0,103.0,100.0,13.4,1505.2,325.5,-0.7,1.8,2470.881,13.28,0.044,121.2
2022-04-12T04:52:03,42.805,6.029,0.051,-0.013,-0.019,101.0,103.0,100.0,13.4,1505.2,332.3,-0.8,1.8,2470.874,13.28,0.052,104.3
2022-04-12T04:55:03,42.805,6.029,0.043,-0.004,0.034,101.0,102.0,101.0,13.4,1505.2,324.7,-0.8,1.8,2470.869,13.28,0.043,95.3
2022-04-12T04:58:03,42.805,6.029,0.042,-0.022,0.018,102.0,102.0,100.0,13.4,1505.2,331.6,-0.8,1.8,2470.895,13.28,0.047,117.6
2022-04-12T05:04:03,42.805,6.029,0.028,0.004,0.032,101.0,103.0,100.0,13.3,1505.2,329.3,-0.8,1.8,2470.965,13.28,0.028,81.9
2022-04-12T05:07:03,42.805,6.029,0.064,-0.025,-0.017,102.0,102.0,100.0,13.3,1505.2,331.5,-0.8,1.8,2470.899,13.28,0.068,111.3
2022-04-12T05:10:03,42.805,6.029,0.033,-0.017,-0.007,101.0,102.0,100.0,13.4,1505.2,332.5,-0.7,1.8,2470.901,13.28,0.037,117.3
2022-04-12T05:13:03,42.805,6.029,0.044,-0.008,-0.021,102.0,103.0,101.0,13.4,1505.2,329.1,-0.8,1.8,2470.916,13.28,0.044,100.3
2022-04-12T05:16:03,42.805,6.029,0.06,-0.004,0.021,101.0,104.0,100.0,13.3,1505.2,330.8,-0.8,1.8,2470.922,13.28,0.06,93.8
2022-04-12T05:19:03,42.805,6.029,0.05,-0.026,-0.007,101.0,104.0,101.0,13.3,1505.2,323.0,-0.8,1.8,2470.894,13.28,0.056,117.5
2022-04-12T05:22:03,42.805,6.029,0.058,-0.024,-0.001,101.0,103.0,100.0,13.4,1505.2,323.5,-0.7,1.8,2470.881,13.28,0.062,112.5
2022-04-12T05:25:03,42.805,6.029,0.038,-0.017,0.009,101.0,102.0,101.0,13.3,1505.2,326.9,-0.7,1.8,2470.892,13.28,0.041,114.1
2022-04-12T05:28:03,42.805,6.029,0.057,-0.014,0.014,101.0,104.0,100.0,13.3,1505.2,328.3,-0.8,1.9,2470.865,13.28,0.058,103.8
2022-04-12T05:31:03,42.805,6.029,0.048,-0.015,0.012,101.0,103.0,100.0,13.4,1505.2,322.8,-0.7,1.8,2470.856,13.28,0.05,107.4
2022-04-12T05:34:03,42.805,6.029,0.057,-0.009,0.007,102.0,101.0,100.0,13.4,1505.2,330.1,-0.8,1.8,2470.865,13.28,0.057,99.0
2022-04-12T05:37:03,42.805,6.029,0.05,-0.017,0.016,101.0,102.0,100.0,13.4,1505.2,329.1,-0.7,1.8,2470.869,13.28,0.052,108.8
2022-04-12T05:40:03,42.805,6.029,0.06,-0.013,-0.015,100.0,105.0,100.0,13.4,1505.2,331.7,-0.8,1.8,2470.897,13.28,0.061,102.2
2022-04-12T05:43:03,42.805,6.029,0.032,-0.016,-0.003,100.0,104.0,101.0,13.4,1505.2,326.4,-0.8,1.8,2470.863,13.28,0.035,116.6
2022-04-12T05:46:03,42.805,6.029,0.046,-0.017,-0.035,102.0,101.0,101.0,13.3,1505.2,331.3,-0.8,1.8,2470.91,13.28,0.049,110.3
2022-04-12T05:49:03,42.805,6.029,0.02,-0.005,0.007,101.0,102.0,100.0,13.3,1505.2,329.6,-0.8,1.8,2470.892,13.28,0.02,104.0
2022-04-12T05:52:03,42.805,6.029,0.028,-0.03,0.011,100.0,105.0,101.0,13.4,1505.2,323.7,-0.7,1.8,2470.876,13.28,0.041,137.0
2022-04-12T05:55:03,42.805,6.029,0.068,-0.021,0.006,102.0,103.0,99.0,13.4,1505.2,325.2,-0.8,1.8,2470.868,13.28,0.071,107.2
2022-04-12T05:58:03,42.805,6.029,0.046,-0.015,0.011,100.0,104.0,100.0,13.4,1505.2,328.8,-0.8,1.8,2470.866,13.28,0.048,108.1
2022-04-12T06:04:03,42.805,6.029,0.053,-0.015,-0.002,100.0,103.0,100.0,13.4,1505.2,329.2,-0.8,1.8,2470.917,13.28,0.055,105.8
2022-04-12T06:07:03,42.805,6.029,0.054,-0.019,-0.006,102.0,103.0,100.0,13.4,1505.2,325.4,-0.8,1.8,2470.897,13.28,0.057,109.4
2022-04-12T06:10:03,42.805,6.029,0.05,-0.008,-0.006,101.0,103.0,101.0,13.4,1505.2,328.4,-0.8,1.8,2470.9,13.28,0.05,99.1
2022-04-12T06:16:03,42.805,6.029,0.04,-0.031,-0.024,100.0,102.0,101.0,13.3,1505.2,325.8,-0.8,1.8,2470.899,13.28,0.05,127.8
2022-04-12T06:19:03,42.805,6.029,0.051,-0.002,-0.003,102.0,102.0,100.0,13.4,1505.2,330.2,-0.8,1.8,2470.905,13.28,0.051,92.2
2022-04-12T06:22:03,42.805,6.029,0.066,-0.029,0.045,100.0,103.0,100.0,13.3,1505.2,327.2,-0.7,1.8,2470.86,13.28,0.072,113.7
2022-04-12T06:25:03,42.805,6.029,0.05,-0.034,0.009,101.0,102.0,101.0,13.4,1505.2,329.1,-0.8,1.8,2470.881,13.28,0.06,124.2
2022-04-12T06:28:03,42.805,6.029,0.069,-0.012,0.005,101.0,102.0,101.0,13.3,1505.2,326.9,-0.8,1.8,2470.861,13.28,0.07,99.9
2022-04-12T06:31:03,42.805,6.029,0.041,-0.035,-0.01,101.0,103.0,101.0,13.3,1505.2,329.1,-0.8,1.8,2470.88,13.28,0.053,130.5
2022-04-12T06:34:03,42.805,6.029,0.052,-0.016,0.013,100.0,103.0,100.0,13.4,1505.2,322.5,-0.7,1.8,2470.864,13.28,0.054,107.1
2022-04-12T06:37:03,42.805,6.029,0.013,-0.008,0.026,101.0,103.0,100.0,13.3,1505.2,329.6,-0.8,1.8,2470.869,13.28,0.015,121.6
2022-04-12T06:40:03,42.805,6.029,0.058,-0.02,0.008,101.0,103.0,100.0,13.3,1505.2,331.3,-0.8,1.8,2470.899,13.28,0.061,109.0
2022-04-12T06:43:03,42.805,6.029,0.078,0.005,0.033,101.0,102.0,100.0,13.4,1505.2,322.7,-0.7,1.8,2470.864,13.28,0.078,86.3
2022-04-12T06:46:03,42.805,6.029,0.05,-0.003,0.013,101.0,103.0,100.0,13.3,1505.2,329.9,-0.7,1.8,2470.926,13.28,0.05,93.4
2022-04-12T06:49:03,42.805,6.029,0.049,-0.004,0.02,102.0,103.0,101.0,13.4,1505.2,325.4,-0.8,1.8,2470.897,13.28,0.049,94.7
2022-04-12T06:52:03,42.805,6.029,0.048,-0.019,-0.006,102.0,102.0,100.0,13.3,1505.2,326.8,-0.7,1.8,2470.838,13.28,0.051,111.6
2022-04-12T06:55:03,42.805,6.029,0.065,-0.021,0.018,102.0,103.0,101.0,13.3,1505.2,325.1,-0.8,1.8,2470.884,13.28,0.068,107.9
2022-04-12T06:58:03,42.805,6.029,0.041,-0.011,0.018,102.0,102.0,101.0,13.4,1505.2,325.7,-0.7,1.8,2470.878,13.28,0.042,105.0
2022-04-12T07:04:03,42.805,6.029,0.073,-0.008,0.021,101.0,103.0,100.0,13.3,1505.2,323.4,-0.7,1.8,2470.888,13.28,0.073,96.3
2022-04-12T07:07:03,42.805,6.029,0.036,-0.03,-0.022,102.0,102.0,101.0,13.3,1505.2,325.2,-0.8,1.8,2470.885,13.28,0.046,129.8
2022-04-12T07:10:03,42.805,6.029,0.017,-0.027,0.009,101.0,103.0,101.0,13.4,1505.2,331.0,-0.8,1.8,2470.883,13.28,0.031,147.8
2022-04-12T07:13:03,42.805,6.029,0.064,-0.014,0.031,102.0,104.0,100.0,13.4,1505.2,329.6,-0.7,1.8,2470.869,13.28,0.065,102.3
2022-04-12T07:16:03,42.805,6.029,0.07,-0.026,0.001,102.0,101.0,101.0,13.4,1505.2,333.2,-0.7,1.8,2470.833,13.28,0.074,110.4
2022-04-12T07:19:03,42.805,6.029,0.032,-0.032,-0.024,101.0,103.0,101.0,13.4,1505.2,323.9,-0.7,1.8,2470.834,13.28,0.045,135.0
2022-04-12T07:22:03,42.805,6.029,0.02,-0.032,0.006,102.0,101.0,101.0,13.3,1505.2,330.4,-0.7,1.8,2470.863,13.28,0.037,148.0
2022-04-12T07:25:03,42.805,6.029,0.057,-0.01,-0.015,102.0,102.0,101.0,13.4,1505.2,322.1,-0.8,1.8,2470.832,13.28,0.057,99.9
2022-04-12T07:28:03,42.805,6.029,0.039,-0.045,0.004,102.0,103.0,100.0,13.4,1505.2,328.5,-0.8,1.8,2470.83,13.28,0.059,139.1
2022-04-12T07:31:03,42.805,6.029,0.031,-0.023,0.011,101.0,103.0,100.0,13.4,1505.2,325.8,-0.8,1.8,2470.831,13.28,0.038,126.6
2022-04-12T07:34:03,42.805,6.029,0.054,-0.002,0.037,102.0,102.0,100.0,13.4,1505.2,330.0,-0.8,1.8,2470.807,13.28,0.054,92.1
2022-04-12T07:37:03,42.805,6.029,0.051,-0.021,-0.023,103.0,101.0,100.0,13.4,1505.2,331.6,-0.7,1.8,2470.802,13.28,0.055,112.4
2022-04-12T07:40:03,42.805,6.029,0.055,-0.012,-0.007,101.0,102.0,100.0,13.4,1505.2,323.5,-0.8,1.8,2470.794,13.28,0.056,102.3
2022-04-12T07:43:03,42.805,6.029,0.066,-0.027,-0.003,102.0,102.0,100.0,13.3,1505.2,331.3,-0.7,1.9,2470.836,13.28,0.071,112.2
2022-04-12T07:46:03,42.805,6.029,0.045,-0.01,0.033,100.0,102.0,102.0,13.4,1505.2,323.5,-0.8,1.8,2470.794,13.28,0.046,102.5
2022-04-12T07:49:03,42.805,6.029,0.053,-0.04,0.008,101.0,102.0,101.0,13.3,1505.2,325.7,-0.8,1.8,2470.78,13.28,0.066,127.0
2022-04-12T07:52:03,42.805,6.029,0.053,-0.038,0.004,100.0,104.0,101.0,13.4,1505.2,327.7,-0.7,1.8,2470.809,13.28,0.065,125.6
2022-04-12T07:55:03,42.805,6.029,0.04,-0.012,0.034,101.0,102.0,100.0,13.4,1505.2,329.3,-0.7,1.8,2470.775,13.28,0.041,106.7
2022-04-12T07:58:03,42.805,6.029,0.016,-0.02,0.001,101.0,102.0,101.0,13.4,1505.2,327.2,-0.7,1.8,2470.788,13.28,0.025,141.3
2022-04-12T08:04:03,42.805,6.029,0.072,-0.025,-0.009,101.0,102.0,100.0,13.4,1505.2,326.1,-0.7,1.8,2470.843,13.28,0.076,109.1
2022-04-12T08:07:03,42.805,6.029,0.05,-0.009,0.023,102.0,106.0,101.0,13.4,1505.2,326.8,-0.8,1.8,2470.809,13.28,0.05,100.2
2022-04-12T08:10:03,42.805,6.029,0.052,-0.023,-0.008,101.0,102.0,101.0,13.4,1505.2,324.3,-0.8,1.8,2470.823,13.28,0.056,113.9
2022-04-12T08:13:03,42.805,6.029,0.052,-0.013,0.047,102.0,103.0,101.0,13.4,1505.2,331.7,-0.7,1.8,2470.804,13.28,0.053,104.0
2022-04-12T08:16:03,42.805,6.029,0.061,-0.022,0.005,100.0,102.0,101.0,13.4,1505.2,322.9,-0.8,1.9,2470.811,13.28,0.064,109.8
2022-04-12T08:19:03,42.805,6.029,0.048,-0.038,-0.029,100.0,103.0,101.0,13.4,1505.2,321.5,-0.8,1.8,2470.774,13.28,0.061,128.4
2022-04-12T08:22:03,42.805,6.029,0.039,-0.021,-0.03,100.0,103.0,101.0,13.4,1505.2,323.4,-0.8,1.8,2470.771,13.28,0.044,118.3
2022-04-12T08:25:03,42.805,6.029,0.048,0.003,-0.005,101.0,101.0,101.0,13.4,1505.2,331.8,-0.8,1.8,2470.794,13.28,0.048,86.4
2022-04-12T08:28:03,42.805,6.029,0.059,-0.023,0.038,100.0,102.0,100.0,13.4,1505.2,326.9,-0.8,1.8,2470.764,13.28,0.063,111.3
2022-04-12T08:31:03,42.805,6.029,0.055,-0.03,-0.012,101.0,103.0,100.0,13.4,1505.2,329.2,-0.7,1.8,2470.749,13.28,0.062,118.6
2022-04-12T08:34:03,42.805,6.029,0.038,-0.025,-0.002,100.0,102.0,102.0,13.3,1505.2,329.1,-0.8,1.8,2470.793,13.28,0.045,123.3
2022-04-12T08:37:03,42.805,6.029,0.05,-0.031,0.009,101.0,102.0,100.0,13.4,1505.2,328.6,-0.7,1.8,2470.773,13.28,0.058,121.8
2022-04-12T08:40:03,42.805,6.029,0.05,-0.043,-0.008,101.0,101.0,100.0,13.4,1505.2,330.5,-0.7,1.8,2470.758,13.28,0.065,130.7
2022-04-12T08:43:03,42.805,6.029,0.046,-0.036,0.002,101.0,103.0,100.0,13.3,1505.2,331.3,-0.7,1.8,2470.788,13.28,0.058,128.0
2022-04-12T08:46:03,42.805,6.029,0.04,-0.008,0.035,101.0,102.0,101.0,13.4,1505.2,331.5,-0.8,1.8,2470.783,13.28,0.04,101.3
2022-04-12T08:49:03,42.805,6.029,0.002,-0.005,0.038,102.0,102.0,101.0,13.4,1505.2,325.6,-0.7,1.8,2470.754,13.28,0.005,158.2
2022-04-12T08:52:03,42.805,6.029,0.061,-0.031,-0.005,101.0,102.0,101.0,13.4,1505.2,329.7,-0.7,1.8,2470.724,13.28,0.068,116.9
2022-04-12T08:55:03,42.805,6.029,0.061,-0.015,0.001,101.0,103.0,101.0,13.3,1505.2,325.5,-0.8,1.8,2470.719,13.28,0.062,103.8
2022-04-12T08:58:03,42.805,6.029,0.049,-0.019,0.021,102.0,102.0,100.0,13.4,1505.2,323.0,-0.7,1.8,2470.751,13.28,0.052,111.2
2022-04-12T09:04:03,42.805,6.029,0.051,-0.013,0.016,100.0,103.0,100.0,13.3,1505.2,323.7,-0.7,1.8,2470.797,13.28,0.052,104.3
2022-04-12T09:07:03,42.805,6.029,0.089,-0.041,0.038,102.0,102.0,101.0,13.4,1505.2,329.9,-0.8,1.8,2470.735,13.28,0.097,114.7
2022-04-12T09:10:03,42.805,6.029,0.075,0.0,0.037,102.0,103.0,100.0,13.4,1505.2,322.5,-0.8,1.8,2470.774,13.28,0.074,90.0
2022-04-12T09:13:03,42.805,6.029,0.052,-0.014,0.026,101.0,103.0,100.0,13.4,1505.2,329.6,-0.8,1.8,2470.76,13.28,0.053,105.1
2022-04-12T09:16:03,42.805,6.029,0.041,0.003,0.018,102.0,103.0,100.0,13.4,1505.2,328.4,-0.8,1.8,2470.762,13.28,0.041,85.8
2022-04-12T09:19:03,42.805,6.029,0.045,-0.032,-0.007,101.0,101.0,100.0,13.4,1505.2,327.9,-0.8,1.8,2470.722,13.28,0.055,125.4
2022-04-12T09:22:03,42.805,6.029,0.048,-0.015,0.003,101.0,102.0,101.0,13.4,1505.2,325.0,-0.8,1.8,2470.777,13.28,0.05,107.4
2022-04-12T09:25:03,42.805,6.029,0.05,-0.02,-0.013,101.0,101.0,100.0,13.4,1505.2,330.0,-0.7,1.8,2470.763,13.28,0.053,111.8
2022-04-12T09:28:03,42.805,6.029,0.041,-0.019,-0.009,102.0,101.0,100.0,13.3,1505.2,330.5,-0.7,1.8,2470.754,13.28,0.045,114.9
2022-04-12T09:31:03,42.805,6.029,0.063,-0.003,-0.001,101.0,102.0,100.0,13.4,1505.2,326.7,-0.8,1.8,2470.736,13.28,0.063,92.7
2022-04-12T09:34:03,42.805,6.029,0.041,-0.008,0.018,103.0,101.0,101.0,13.4,1505.2,329.1,-0.7,1.8,2470.697,13.28,0.041,101.0
2022-04-12T09:37:03,42.805,6.029,0.04,-0.028,-0.009,101.0,102.0,101.0,13.4,1505.2,327.0,-0.7,1.9,2470.73,13.28,0.048,125.0
2022-04-12T09:40:03,42.805,6.029,0.043,-0.029,0.007,101.0,103.0,101.0,13.4,1505.2,329.9,-0.8,1.8,2470.744,13.28,0.051,124.0
2022-04-12T09:43:03,42.805,6.029,0.069,-0.022,0.023,101.0,103.0,99.0,13.3,1505.2,329.9,-0.8,1.8,2470.75,13.28,0.072,107.7
2022-04-12T09:46:03,42.805,6.029,0.053,-0.024,-0.018,102.0,103.0,100.0,13.3,1505.2,326.0,-0.7,1.9,2470.692,13.28,0.058,114.4
2022-04-12T09:49:03,42.805,6.029,0.075,-0.006,0.045,102.0,102.0,100.0,13.4,1505.2,325.4,-0.7,1.8,2470.73,13.28,0.075,94.6
2022-04-12T09:52:03,42.805,6.029,0.077,-0.034,0.0,101.0,102.0,100.0,13.4,1505.2,327.4,-0.7,1.8,2470.759,13.28,0.084,113.8
2022-04-12T09:55:03,42.805,6.029,0.034,0.009,0.005,101.0,102.0,100.0,13.3,1505.2,325.5,-0.7,1.8,2470.739,13.28,0.035,75.2
2022-04-12T09:58:03,42.805,6.029,0.063,0.001,0.047,103.0,101.0,102.0,13.3,1505.2,326.0,-0.7,1.8,2470.693,13.28,0.063,89.1
2022-04-12T10:04:03,42.805,6.029,0.07,-0.009,0.019,101.0,101.0,100.0,13.3,1505.2,327.4,-0.8,1.8,2470.776,13.28,0.07,97.3